TimeMDT,TemperatureF,Dew PointF,Humidity,Sea Level PressureIn,VisibilityMPH,Wind Direction,Wind SpeedMPH,Gust SpeedMPH,PrecipitationIn,Events,Conditions,WindDirDegrees,DateUTC
12:15 AM,62.6,46.4,55,30.39,10.0,East,6.9,-,N/A,,Clear,80,2013-07-09 06:15:00
12:35 AM,64.4,46.4,52,30.40,10.0,ENE,8.1,-,N/A,,Clear,70,2013-07-09 06:35:00
12:55 AM,62.6,46.4,55,30.40,10.0,ENE,6.9,-,N/A,,Clear,60,2013-07-09 06:55:00
1:15 AM,60.8,46.4,59,30.39,10.0,NNW,4.6,-,N/A,,Clear,330,2013-07-09 07:15:00
1:35 AM,60.8,46.4,59,30.39,10.0,North,4.6,-,N/A,,Clear,360,2013-07-09 07:35:00
1:55 AM,60.8,46.4,59,30.39,10.0,North,4.6,-,N/A,,Clear,10,2013-07-09 07:55:00
2:15 AM,59.0,46.4,63,30.39,10.0,North,8.1,-,N/A,,Clear,360,2013-07-09 08:15:00
2:35 AM,60.8,48.2,63,30.38,10.0,NNE,6.9,-,N/A,,Clear,20,2013-07-09 08:35:00
2:55 AM,59.0,46.4,63,30.38,10.0,North,4.6,-,N/A,,Clear,10,2013-07-09 08:55:00
3:15 AM,59.0,46.4,63,30.38,10.0,Calm,Calm,-,N/A,,Clear,0,2013-07-09 09:15:00
3:35 AM,57.2,46.4,67,30.38,10.0,Calm,Calm,-,N/A,,Clear,0,2013-07-09 09:35:00
3:55 AM,57.2,46.4,67,30.38,10.0,North,4.6,-,N/A,,Clear,360,2013-07-09 09:55:00
4:15 AM,55.4,46.4,72,30.38,10.0,North,4.6,-,N/A,,Clear,360,2013-07-09 10:15:00
4:35 AM,55.4,46.4,72,30.39,10.0,North,5.8,-,N/A,,Clear,10,2013-07-09 10:35:00
4:55 AM,55.4,46.4,72,30.39,10.0,Calm,Calm,-,N/A,,Clear,0,2013-07-09 10:55:00
5:15 AM,55.4,46.4,72,30.39,10.0,North,5.8,-,N/A,,Clear,350,2013-07-09 11:15:00
5:35 AM,55.4,46.4,72,30.39,10.0,North,6.9,-,N/A,,Clear,10,2013-07-09 11:35:00
5:55 AM,55.4,46.4,72,30.39,10.0,North,4.6,-,N/A,,Clear,10,2013-07-09 11:55:00
6:15 AM,55.4,46.4,72,30.39,10.0,North,3.5,-,N/A,,Clear,10,2013-07-09 12:15:00
6:35 AM,57.2,48.2,72,30.40,10.0,North,3.5,-,N/A,,Clear,10,2013-07-09 12:35:00
6:55 AM,59.0,48.2,67,30.40,10.0,Calm,Calm,-,N/A,,Clear,0,2013-07-09 12:55:00
7:15 AM,60.8,48.2,63,30.41,10.0,Calm,Calm,-,N/A,,Clear,0,2013-07-09 13:15:00
7:35 AM,62.6,48.2,59,30.42,10.0,NNE,4.6,-,N/A,,Clear,20,2013-07-09 13:35:00
7:55 AM,64.4,48.2,56,30.42,10.0,North,3.5,-,N/A,,Clear,10,2013-07-09 13:55:00
8:15 AM,64.4,50.0,59,30.42,10.0,North,4.6,-,N/A,,Clear,350,2013-07-09 14:15:00
8:35 AM,64.4,50.0,59,30.43,10.0,North,4.6,-,N/A,,Clear,350,2013-07-09 14:35:00
8:55 AM,66.2,50.0,56,30.43,10.0,North,6.9,-,N/A,,Clear,350,2013-07-09 14:55:00
9:15 AM,68.0,50.0,52,30.43,10.0,North,5.8,-,N/A,,Clear,350,2013-07-09 15:15:00
9:35 AM,69.8,50.0,49,30.43,10.0,North,8.1,-,N/A,,Clear,350,2013-07-09 15:35:00
9:55 AM,71.6,51.8,50,30.42,10.0,North,5.8,-,N/A,,Clear,350,2013-07-09 15:55:00
10:15 AM,73.4,51.8,47,30.42,10.0,NNW,4.6,-,N/A,,Clear,340,2013-07-09 16:15:00
10:35 AM,75.2,51.8,44,30.42,10.0,NNE,3.5,-,N/A,,Clear,20,2013-07-09 16:35:00
10:55 AM,78.8,53.6,42,30.41,10.0,NNE,5.8,-,N/A,,Clear,20,2013-07-09 16:55:00
11:15 AM,80.6,51.8,37,30.41,10.0,North,6.9,-,N/A,,Clear,10,2013-07-09 17:15:00
11:35 AM,80.6,51.8,37,30.40,10.0,North,8.1,-,N/A,,Clear,10,2013-07-09 17:35:00
11:55 AM,84.2,50.0,30,30.39,10.0,North,9.2,-,N/A,,Clear,10,2013-07-09 17:55:00
12:15 PM,86.0,48.2,27,30.39,10.0,North,10.4,17.3,N/A,,Clear,360,2013-07-09 18:15:00
12:35 PM,86.0,46.4,25,30.38,10.0,NNW,8.1,-,N/A,,Clear,330,2013-07-09 18:35:00
12:55 PM,87.8,46.4,24,30.37,10.0,NW,9.2,-,N/A,,Clear,310,2013-07-09 18:55:00
1:15 PM,86.0,46.4,25,30.36,10.0,NW,4.6,-,N/A,,Clear,320,2013-07-09 19:15:00
1:35 PM,87.8,46.4,24,30.34,10.0,NNW,4.6,-,N/A,,Clear,330,2013-07-09 19:35:00
1:55 PM,89.6,46.4,22,30.34,10.0,North,5.8,19.6,N/A,Thunderstorm,Clear,10,2013-07-09 19:55:00
2:15 PM,89.6,46.4,22,30.34,10.0,NNW,3.5,-,N/A,,Mostly Cloudy,340,2013-07-09 20:15:00
2:35 PM,87.8,46.4,24,30.34,10.0,NE,18.4,-,N/A,,Scattered Clouds,50,2013-07-09 20:35:00
2:55 PM,84.2,44.6,25,30.35,10.0,NNE,15.0,-,N/A,,Mostly Cloudy,20,2013-07-09 20:55:00
3:15 PM,82.4,44.6,26,30.35,10.0,South,15.0,18.4,N/A,,Overcast,170,2013-07-09 21:15:00
3:35 PM,80.6,44.6,28,30.35,10.0,SSE,18.4,25.3,N/A,,Overcast,160,2013-07-09 21:35:00
3:55 PM,80.6,44.6,28,30.36,10.0,South,6.9,-,N/A,Thunderstorm,Thunderstorm,190,2013-07-09 21:55:00
4:15 PM,80.6,44.6,28,30.36,10.0,NNW,11.5,-,N/A,,Overcast,330,2013-07-09 22:15:00
4:35 PM,73.4,51.8,47,30.36,9.0,ENE,19.6,28.8,N/A,,Mostly Cloudy,70,2013-07-09 22:35:00
4:55 PM,75.2,51.8,44,30.36,10.0,East,15.0,20.7,N/A,,Scattered Clouds,90,2013-07-09 22:55:00
5:15 PM,80.6,48.2,32,30.35,10.0,ESE,18.4,23.0,N/A,,Clear,120,2013-07-09 23:15:00
5:35 PM,78.8,48.2,34,30.36,10.0,ESE,23.0,31.1,N/A,,Clear,110,2013-07-09 23:35:00
5:55 PM,78.8,48.2,34,30.35,10.0,ESE,18.4,27.6,N/A,,Clear,120,2013-07-09 23:55:00
6:15 PM,75.2,48.2,38,30.34,10.0,ESE,17.3,-,N/A,,Clear,110,2013-07-10 00:15:00
6:35 PM,78.8,48.2,34,30.33,10.0,ESE,13.8,-,N/A,,Clear,120,2013-07-10 00:35:00
6:55 PM,78.8,48.2,34,30.33,10.0,SSE,12.7,-,N/A,,Clear,150,2013-07-10 00:55:00
7:15 PM,78.8,46.4,32,30.33,10.0,SSE,8.1,-,N/A,,Clear,160,2013-07-10 01:15:00
7:35 PM,78.8,46.4,32,30.33,10.0,South,9.2,-,N/A,,Clear,170,2013-07-10 01:35:00
7:55 PM,75.2,46.4,36,30.33,10.0,South,10.4,-,N/A,,Mostly Cloudy,180,2013-07-10 01:55:00
8:15 PM,73.4,48.2,41,30.34,10.0,SSE,9.2,-,N/A,,Overcast,160,2013-07-10 02:15:00
8:35 PM,71.6,48.2,43,30.34,10.0,SE,6.9,-,N/A,,Overcast,140,2013-07-10 02:35:00
8:55 PM,71.6,48.2,43,30.35,10.0,East,6.9,-,N/A,,Scattered Clouds,100,2013-07-10 02:55:00
9:15 PM,71.6,46.4,41,30.35,10.0,SSE,6.9,-,N/A,,Partly Cloudy,150,2013-07-10 03:15:00
9:35 PM,69.8,46.4,43,30.36,10.0,SE,5.8,-,N/A,,Scattered Clouds,140,2013-07-10 03:35:00
9:55 PM,71.6,46.4,41,30.38,10.0,ESE,6.9,-,N/A,,Scattered Clouds,110,2013-07-10 03:55:00
10:15 PM,69.8,46.4,43,30.37,10.0,Calm,Calm,-,N/A,,Partly Cloudy,0,2013-07-10 04:15:00
10:35 PM,68.0,46.4,46,30.37,10.0,ESE,10.4,-,N/A,,Clear,120,2013-07-10 04:35:00
10:55 PM,66.2,46.4,49,30.38,10.0,SSE,8.1,-,N/A,,Clear,150,2013-07-10 04:55:00
11:15 PM,66.2,48.2,52,30.38,10.0,SSE,8.1,-,N/A,,Clear,150,2013-07-10 05:15:00
11:35 PM,66.2,46.4,49,30.38,10.0,SSE,6.9,-,N/A,,Clear,160,2013-07-10 05:35:00
11:55 PM,66.2,46.4,49,30.38,10.0,SSE,8.1,-,N/A,,Clear,150,2013-07-10 05:55:00